TimePST,TemperatureF,Dew PointF,Humidity,Sea Level PressureIn,VisibilityMPH,Wind Direction,Wind SpeedMPH,Gust SpeedMPH,PrecipitationIn,Events,Conditions,WindDirDegrees,DateUTC
12:56 AM,27.0,23.0,85,30.37,10.0,Calm,Calm,-,N/A,,Partly Cloudy,0,2013-02-14 08:56:00
1:56 AM,26.1,21.9,84,30.36,10.0,Calm,Calm,-,N/A,,Clear,0,2013-02-14 09:56:00
2:56 AM,28.0,23.0,81,30.36,10.0,Calm,Calm,-,N/A,,Overcast,0,2013-02-14 10:56:00
3:56 AM,27.0,23.0,85,30.38,10.0,Calm,Calm,-,N/A,,Overcast,0,2013-02-14 11:56:00
4:56 AM,30.0,24.1,79,30.38,10.0,SSW,4.6,-,N/A,,Mostly Cloudy,210,2013-02-14 12:56:00
5:56 AM,26.1,21.0,81,30.41,10.0,South,3.5,-,N/A,,Partly Cloudy,190,2013-02-14 13:56:00
6:56 AM,28.9,21.9,75,30.45,10.0,Calm,Calm,-,N/A,,Partly Cloudy,0,2013-02-14 14:56:00
7:56 AM,28.0,23.0,81,30.48,10.0,SW,4.6,-,N/A,,Scattered Clouds,220,2013-02-14 15:56:00
8:56 AM,35.1,25.0,67,30.46,10.0,SSW,5.8,-,N/A,,Clear,200,2013-02-14 16:56:00
9:56 AM,37.9,24.1,57,30.46,10.0,Calm,Calm,-,N/A,,Clear,0,2013-02-14 17:56:00
10:56 AM,37.9,26.1,62,30.45,2.5,SW,8.1,-,N/A,,Haze,230,2013-02-14 18:56:00
11:07 AM,39.2,26.6,61,30.41,10.0,SW,9.2,-,N/A,,Clear,220,2013-02-14 19:07:00
11:14 AM,39.2,24.8,56,30.40,1.8,SW,6.9,-,N/A,,Haze,220,2013-02-14 19:14:00
11:28 AM,39.2,24.8,56,30.40,10.0,SW,6.9,-,N/A,,Clear,220,2013-02-14 19:28:00
11:56 AM,41.0,26.1,55,30.45,10.0,SW,8.1,-,N/A,,Clear,220,2013-02-14 19:56:00
12:56 PM,41.0,24.1,51,30.45,9.0,West,8.1,-,N/A,,Unknown,270,2013-02-14 20:56:00
1:56 PM,39.9,26.1,58,30.45,10.0,North,-9999.0,-,N/A,,Unknown,0,2013-02-14 21:56:00
2:56 PM,41.0,26.1,55,30.44,10.0,SW,5.8,-,N/A,,Clear,220,2013-02-14 22:56:00
3:56 PM,-9999,-9999,N/A,30.40,-9999.0,North,-9999.0,-,N/A,,Unknown,0,2013-02-14 23:56:00
4:56 PM,37.9,25.0,60,30.45,10.0,West,6.9,-,N/A,,Clear,270,2013-02-15 00:56:00
5:56 PM,33.1,24.1,70,30.48,10.0,Variable,4.6,-,N/A,,Clear,0,2013-02-15 01:56:00
6:56 PM,30.0,23.0,75,30.50,10.0,Calm,Calm,-,N/A,,Clear,0,2013-02-15 02:56:00
7:56 PM,27.0,21.9,81,30.52,10.0,WSW,3.5,-,N/A,,Clear,240,2013-02-15 03:56:00
8:56 PM,27.0,21.9,81,30.51,10.0,WNW,3.5,-,N/A,,Clear,290,2013-02-15 04:56:00
9:56 PM,25.0,21.0,85,30.51,10.0,Calm,Calm,-,N/A,,Clear,0,2013-02-15 05:56:00
10:56 PM,24.1,19.9,84,30.53,10.0,Calm,Calm,-,N/A,,Clear,0,2013-02-15 06:56:00
11:56 PM,24.1,21.0,88,30.53,10.0,Calm,Calm,-,N/A,,Clear,0,2013-02-15 07:56:00